NIGERIAEDUSAT-1

Last updated on May 14, 2019, 3:07 a.m. UTC

1 42824U 98067MY  19133.12526632  .12220275  12529-4  51637-3 0  9993
2 42824  51.6091  92.5367 0003545 299.4874 174.6355 16.43636834105973

Satellite is not in orbit.